Jacksonville, FL

9:49 AM EDT on August 27, 2016 (GMT -0400)
Cecil

Weather History for KVQQ - March, 2013

Change the Weather History Date:

Wednesday, March 20, 2013

  Actual Average (KJAX) Record (KJAX)
Temperature  
Mean Temperature 56 °F 62 °F  
Max Temperature 66 °F 75 °F 89 °F (1945)
Min Temperature 46 °F 50 °F 34 °F (1923)
Degree Days  
Heating Degree Days 9 4  
Month to date heating degree days 116  
Since 1 July heating degree days 1249  
Cooling Degree Days 0 2  
Month to date cooling degree days 32  
Year to date cooling degree days 61  
Growing Degree Days 6 (Base 50)    
Moisture  
Dew Point 52 °F    
Average Humidity 89    
Maximum Humidity 100    
Minimum Humidity 56    
Precipitation  
Precipitation 0.00 in 0.12 in 3.04 in (1924)
Month to date precipitation 2.65  
Year to date precipitation 9.14  
Snow  
Snow 0.00 in 0.00 in 0.00 in (2002)
Month to date snowfall 0.0  
Since 1 July snowfall T  
Snow Depth -    
Sea Level Pressure  
Sea Level Pressure 29.96 in    
Wind  
Wind Speed 1 mph (NNE)    
Max Wind Speed 21 mph    
Max Gust Speed -    
Visibility 7 miles    
Events Fog , Rain    
T = Trace of Precipitation, MM = Missing Value Source: NWS Daily Summary

Daily Weather History Graph

Daily Weather History Graph

Search for Another Location

Airport or City:

Trip Planner

Search our weather history database for the weather conditions in past years. The results will help you decide how hot, cold, wet, or windy it might be!

Date:

Astronomy

Mar. 20, 2013 Rise Set
Actual Time 7:31 AM EDT 7:39 PM EDT
Civil Twilight 7:07 AM EDT 8:03 PM EDT
Nautical Twilight 6:39 AM EDT 8:30 PM EDT
Astronomical Twilight 6:11 AM EDT 8:59 PM EDT
Moon 1:35 PM EDT (3/20) 2:47 AM EDT (3/20)
Length of Visible Light 12h 55m
Length of Day
12h 08m
First Quarter, 59% of the Moon is Illuminated
Mar 20
First Quarter
Mar 27
Full
Apr 3
Last Quarter
Apr 10
New
Apr 18
First Quarter

Hourly Weather History & Observations

Time (EDT) Temp. Dew Point Humidity Pressure Visibility Wind Dir Wind Speed Gust Speed Precip Events Conditions
12:15 AM 57.2 °F 55.4 °F 94% 30.02 in 10.0 mi Calm Calm - N/A   Scattered Clouds
12:35 AM 55.4 °F 55.4 °F 100% 30.00 in 10.0 mi Calm Calm - N/A   Clear
12:55 AM 55.4 °F 55.4 °F 100% 30.00 in 10.0 mi Calm Calm - N/A   Clear
1:15 AM 55.4 °F 53.6 °F 94% 29.99 in 9.0 mi Calm Calm - N/A   Partly Cloudy
1:35 AM 53.6 °F 53.6 °F 100% 30.00 in 10.0 mi Calm Calm - N/A   Clear
1:55 AM 53.6 °F 53.6 °F 100% 29.99 in 8.0 mi Calm Calm - N/A   Partly Cloudy
2:15 AM 53.6 °F 53.6 °F 100% 29.99 in 6.0 mi Calm Calm - N/A   Mostly Cloudy
2:35 AM 53.6 °F 53.6 °F 100% 30.00 in 10.0 mi Calm Calm - N/A   Overcast
2:55 AM 55.4 °F 55.4 °F 100% 30.00 in 10.0 mi Calm Calm - N/A   Mostly Cloudy
3:15 AM 55.4 °F 53.6 °F 94% 30.00 in 10.0 mi Calm Calm - N/A   Scattered Clouds
3:35 AM 55.4 °F 53.6 °F 94% 29.99 in 10.0 mi Calm Calm - N/A   Partly Cloudy
3:55 AM 53.6 °F 51.8 °F 94% 29.99 in 10.0 mi Calm Calm - N/A   Partly Cloudy
4:15 AM 53.6 °F 53.6 °F 100% 29.98 in 10.0 mi Calm Calm - N/A   Mostly Cloudy
4:35 AM 55.4 °F 51.8 °F 88% 29.97 in 10.0 mi Calm Calm - N/A   Mostly Cloudy
4:55 AM 55.4 °F 50.0 °F 82% 29.98 in 10.0 mi Calm Calm - N/A   Overcast
5:15 AM 55.4 °F 50.0 °F 82% 29.98 in 10.0 mi Calm Calm - N/A   Overcast
5:35 AM 55.4 °F 50.0 °F 82% 29.97 in 10.0 mi Calm Calm - N/A   Mostly Cloudy
5:55 AM 53.6 °F 48.2 °F 82% 29.98 in 10.0 mi Calm Calm - N/A   Partly Cloudy
6:15 AM 53.6 °F 48.2 °F 82% 29.98 in 10.0 mi Calm Calm - N/A   Partly Cloudy
6:35 AM 53.6 °F 48.2 °F 82% 29.97 in 10.0 mi Calm Calm - N/A   Clear
6:50 AM 53.6 °F 48.2 °F 82% 29.97 in 7.0 mi North 4.6 mph - N/A   Clear
7:50 AM 51.8 °F 48.2 °F 88% 29.98 in 10.0 mi North 5.8 mph - N/A   Clear
8:50 AM 55.4 °F 48.2 °F 77% 30.01 in 10.0 mi NNW 5.8 mph - N/A   Mostly Cloudy
9:50 AM 60.8 °F 48.2 °F 63% 30.02 in 10.0 mi North 11.5 mph - N/A   Mostly Cloudy
10:50 AM 62.6 °F 48.2 °F 59% 30.03 in 10.0 mi North 9.2 mph - N/A   Mostly Cloudy
11:50 AM 62.6 °F 51.8 °F 68% 30.03 in 10.0 mi NNE 8.1 mph - N/A   Scattered Clouds
12:50 PM 66.2 °F 50.0 °F 56% 30.01 in 10.0 mi NNE 11.5 mph - N/A   Scattered Clouds
1:50 PM 64.4 °F 50.0 °F 59% 29.98 in 7.0 mi NNE 20.7 mph - N/A   Mostly Cloudy
2:50 PM 66.2 °F 51.8 °F 60% 29.92 in 7.0 mi NE 11.5 mph - N/A   Scattered Clouds
4:50 PM 62.6 °F 53.6 °F 72% 29.89 in 5.0 mi NNE 8.1 mph - N/A Rain Light Rain
5:50 PM 57.2 °F 55.4 °F 94% 29.92 in 2.5 mi Calm Calm - N/A Rain Light Rain
6:10 PM 57.2 °F 55.4 °F 94% 29.91 in 3.0 mi Calm Calm - N/A Rain Light Rain
6:50 PM 57.2 °F 55.4 °F 94% 29.93 in 5.0 mi Variable 4.6 mph - N/A Rain Light Rain
7:50 PM 55.4 °F 55.4 °F 100% 29.87 in 7.0 mi Calm Calm - N/A   Clear
8:15 PM 55.4 °F 55.4 °F 100% 29.88 in 8.0 mi Calm Calm - N/A   Clear
8:35 PM 55.4 °F 55.4 °F 100% 29.90 in 9.0 mi Calm Calm - N/A   Clear
8:55 PM 53.6 °F 53.6 °F 100% 29.90 in 7.0 mi Calm Calm - N/A   Clear
9:15 PM 53.6 °F 53.6 °F 100% 29.89 in 4.0 mi Calm Calm - N/A   Clear
9:35 PM 51.8 °F 51.8 °F 100% 29.90 in 0.8 mi Calm Calm - N/A   Mist
9:55 PM 50.0 °F 50.0 °F 100% 29.89 in 1.2 mi Calm Calm - N/A   Clear
10:15 PM 48.2 °F 48.2 °F 100% 29.90 in 3.0 mi Calm Calm - N/A   Clear
10:35 PM 48.2 °F 48.2 °F 100% 29.90 in 0.5 mi Calm Calm - N/A Fog Fog
10:55 PM 46.4 °F 46.4 °F 100% 29.90 in 0.2 mi Calm Calm - N/A Fog Fog
11:15 PM 48.2 °F 48.2 °F 100% 29.90 in 0.2 mi Calm Calm - N/A Fog Fog
11:35 PM 48.2 °F 48.2 °F 100% 29.91 in 0.2 mi Calm Calm - N/A Fog Fog
11:55 PM 46.4 °F 46.4 °F 100% 29.91 in 0.5 mi Calm Calm - N/A Fog Fog